Wind_Speed
35 37 39 40 41 43 44 44 46 48 51 52 53 54 56 58 59 60 61 62 64 65 66 66 66 65 64 64 64 63 62 61 60 58 57 55 54 51 50 48 46 44 42
34 35 37 39 41 41 42 42 43 45 48 50 51 52 54 55 57 59 60 61 62 64 66 65 66 66 66 66 66 65 64 63 61 60 58 57 55 53 50 49 48 46 44
34 34 35 38 39 40 41 42 42 43 46 48 50 52 54 56 56 57 58 59 60 62 64 64 65 66 67 66 66 65 65 63 62 61 60 59 56 54 52 51 49 47 46
34 35 36 38 39 40 41 42 42 44 45 46 50 52 53 54 54 55 56 58 59 60 61 62 62 63 63 63 62 63 63 62 62 62 61 61 58 56 54 53 51 48 46
35 36 36 37 39 40 41 42 43 44 45 46 47 49 51 52 52 53 54 56 58 59 59 60 60 60 60 60 60 60 61 61 60 61 61 61 59 57 56 54 52 49 47
36 36 37 38 39 40 40 41 43 43 44 46 47 48 50 50 50 51 52 53 56 58 59 60 59 57 59 60 60 59 59 59 59 59 59 60 59 57 55 54 52 50 48
37 38 39 39 41 41 40 40 41 42 43 44 46 48 48 48 48 48 50 51 53 55 57 58 59 57 57 58 59 59 58 57 58 57 57 58 58 57 56 55 53 51 49
38 40 41 41 41 41 40 40 40 41 43 44 45 46 46 46 47 47 49 50 50 52 54 57 57 56 55 56 56 57 58 58 57 56 55 56 57 56 55 54 53 51 50
39 41 41 41 42 42 41 41 41 41 41 42 44 44 44 44 44 44 46 47 48 50 51 54 55 55 55 56 56 55 57 58 57 55 55 55 56 56 54 53 51 50 50
40 41 41 41 43 42 42 42 42 41 41 42 43 42 41 41 41 41 41 43 45 46 49 52 53 53 54 55 56 54 55 56 56 55 54 53 55 57 55 52 51 51 50
41 42 41 42 43 42 42 42 41 40 40 40 40 39 38 38 37 37 39 40 42 43 45 49 51 51 53 55 56 54 53 53 53 53 53 52 54 55 53 51 50 50 50
41 42 42 43 43 43 42 42 40 39 38 37 36 36 35 35 35 35 36 37 38 40 42 46 47 48 50 52 53 53 52 51 52 51 51 52 54 53 51 50 50 50 50
41 42 42 43 43 43 42 41 38 37 36 35 34 34 34 34 34 34 35 35 36 37 39 41 43 45 47 49 49 51 51 50 50 51 51 51 52 51 50 49 49 49 50
42 42 43 43 43 42 41 39 37 35 33 33 32 32 32 32 32 33 32 33 34 36 36 37 40 42 44 46 47 49 49 49 49 50 50 50 50 49 49 49 48 48 49
42 43 43 43 42 41 39 38 37 33 32 31 31 31 30 30 30 30 30 30 31 32 33 34 36 38 40 43 45 47 46 45 46 47 48 49 49 49 49 48 47 47 48
42 42 43 42 42 40 38 37 36 33 31 31 31 30 29 28 28 28 28 30 31 30 31 32 33 36 39 42 43 44 43 42 43 45 47 48 49 50 49 47 46 46 46
42 42 43 42 41 41 38 37 36 33 32 32 30 29 28 27 25 25 26 27 29 29 29 30 33 36 37 39 40 41 41 41 41 42 44 46 46 49 47 45 44 44 43
43 43 43 41 41 40 38 36 35 33 32 31 29 27 26 24 23 24 25 26 26 27 28 29 29 33 35 37 39 40 40 42 40 40 42 44 44 45 44 43 42 41 40
43 43 42 42 41 39 37 35 34 33 31 28 26 25 24 23 22 22 22 23 25 25 27 28 29 31 32 34 35 36 38 40 40 41 41 42 42 42 42 41 40 39 40
43 43 42 41 40 38 37 36 33 31 29 27 25 24 23 22 21 21 21 22 23 25 26 28 29 31 31 31 31 33 35 37 39 40 40 40 39 39 40 40 39 39 38
42 42 41 40 39 38 37 35 31 28 27 26 26 25 24 22 21 21 21 21 22 24 25 26 28 30 30 30 30 30 32 34 36 38 38 37 37 38 39 39 38 37 37
41 41 40 39 38 37 36 33 30 28 27 26 25 24 24 24 23 22 21 21 21 22 24 25 27 29 28 29 29 29 30 32 32 34 35 35 35 37 37 36 37 37 36
40 39 39 39 37 36 35 32 31 29 27 26 25 24 23 24 23 22 22 21 21 23 24 25 26 27 28 29 29 28 29 30 30 32 33 33 34 35 34 34 34 35 35
39 39 39 39 37 36 34 32 31 28 26 25 24 23 22 22 21 21 20 20 20 21 22 24 26 27 28 29 29 28 29 29 29 31 33 33 33 32 32 32 33 34 34
39 39 39 38 36 34 32 31 29 27 25 24 23 22 20 20 20 20 20 19 19 19 21 23 26 27 27 27 28 28 28 28 29 31 32 31 31 30 30 31 32 32 32
38 38 38 36 34 33 31 30 28 27 25 23 22 21 19 19 18 18 19 19 18 18 20 23 25 26 26 26 27 27 28 27 28 30 30 29 29 29 29 30 30 31 30
Wind_Direction
295 292 288 284 284 281 275 270 268 266 263 261 260 259 259 258 259 258 257 255 253 251 250 249 248 248 248 247 246 246 246 246 246 246 246 246 246 246 246 248 249 251 252
299 295 291 289 287 284 279 275 273 270 266 263 261 261 261 261 260 260 259 257 254 252 250 248 248 248 247 246 245 245 245 245 244 244 245 246 245 245 246 247 248 249 250
300 298 295 294 291 286 283 280 277 274 271 268 265 265 264 263 262 261 259 257 254 253 251 248 248 247 246 245 244 244 243 244 243 243 243 244 244 245 245 245 246 247 248
303 301 300 298 295 291 288 284 279 277 275 272 270 268 266 265 263 261 259 256 254 252 250 248 246 245 245 244 242 241 241 242 242 241 242 242 242 243 243 243 244 246 247
304 303 303 301 301 297 292 287 282 280 277 276 274 273 269 267 265 262 259 256 254 251 249 247 245 244 243 242 241 240 239 240 240 240 240 240 239 241 241 242 243 244 246
305 305 305 304 304 300 296 291 286 283 281 278 277 275 272 269 266 263 260 257 254 250 248 246 244 243 243 241 240 239 238 238 238 238 238 237 237 238 239 240 240 242 243
307 308 307 306 305 302 299 295 290 286 283 280 279 278 274 270 267 265 263 259 254 251 248 245 242 241 241 240 239 237 236 236 236 236 236 235 235 235 238 238 238 239 241
308 309 309 308 308 305 301 297 292 288 285 283 282 280 275 271 268 265 263 259 254 250 247 244 241 239 239 239 237 236 235 235 235 235 235 234 234 234 236 238 238 238 240
309 310 310 310 309 307 304 300 295 291 287 285 284 281 276 272 270 267 263 259 254 250 247 243 240 239 238 238 236 236 234 234 234 234 234 234 233 232 234 237 237 238 238
311 312 311 311 310 308 306 302 298 294 291 287 284 281 278 275 271 267 262 257 253 250 248 243 239 239 237 236 234 234 233 233 232 233 233 233 233 232 233 235 236 236 237
312 312 313 313 310 308 306 304 300 297 294 291 285 281 279 275 272 268 262 257 252 250 247 242 240 238 237 235 232 231 231 231 231 231 231 232 232 231 233 234 236 236 236
313 313 314 313 311 309 306 303 300 299 297 294 288 282 280 276 270 267 261 256 253 250 248 243 238 235 235 232 230 230 229 229 229 230 230 230 230 231 231 233 234 235 236
312 314 314 313 311 310 307 303 300 299 297 296 293 286 281 277 271 266 260 254 252 248 247 243 237 234 231 228 228 229 228 229 229 228 228 228 230 229 230 231 233 235 236
313 314 314 314 312 311 308 304 300 299 296 295 292 288 283 277 272 266 260 254 251 246 243 240 235 231 228 226 227 228 227 227 229 228 227 227 228 229 229 231 232 234 236
314 314 314 313 313 311 309 304 301 298 296 294 291 288 284 280 273 264 258 253 249 245 241 236 232 227 226 225 224 226 225 227 228 227 226 227 227 227 229 231 233 234 235
313 314 314 313 312 312 310 305 301 297 295 293 291 288 286 283 274 264 254 249 246 243 239 234 230 227 224 221 222 224 224 226 226 226 226 226 226 226 228 230 233 235 235
313 313 314 313 312 312 310 305 301 298 294 291 289 287 284 279 271 261 254 248 245 243 238 231 227 224 222 222 223 222 223 223 223 224 225 224 225 226 228 230 232 234 235
312 312 313 313 312 311 309 305 301 298 297 293 288 286 283 278 271 264 256 247 243 242 234 229 224 222 222 223 223 222 223 222 222 224 223 223 224 225 228 229 231 233 233
311 312 312 312 311 310 308 304 300 297 296 293 289 285 281 276 271 264 256 248 244 238 233 228 224 221 222 223 222 219 219 221 223 223 223 222 222 224 226 228 230 230 230
310 312 312 311 310 307 306 304 299 297 293 291 288 284 281 277 270 265 256 248 242 235 231 226 224 223 220 221 222 219 218 220 221 221 221 221 223 224 225 228 228 228 229
310 311 311 311 310 307 306 304 300 297 292 289 285 283 281 277 269 263 254 245 237 233 229 227 224 220 218 220 219 218 218 218 220 221 221 222 223 224 225 227 227 227 228
309 310 311 311 310 308 307 305 300 295 292 288 283 282 278 273 268 259 252 243 235 232 228 226 221 219 220 220 218 216 218 220 220 220 220 220 220 219 222 226 227 228 229
308 309 310 310 308 308 307 304 299 294 290 287 283 280 276 268 262 254 250 244 237 231 226 221 216 216 217 218 217 216 215 216 219 219 218 218 219 218 220 223 226 229 230
308 309 308 308 307 307 305 303 298 293 289 285 281 277 272 265 258 252 247 239 232 226 221 218 215 213 214 215 215 216 216 217 218 218 215 216 216 217 219 222 226 228 228
307 307 307 307 306 305 304 302 298 291 286 281 278 274 268 262 254 246 239 235 228 224 219 215 212 210 210 211 211 212 214 215 213 213 213 212 213 216 219 223 225 227 226
306 306 307 306 305 305 304 302 299 291 283 278 273 268 263 258 249 238 230 227 224 218 213 210 208 206 207 207 207 207 207 206 207 210 211 211 212 217 220 223 225 226 226
Height
5672 5669 5665 5663 5660 5657 5655 5654 5653 5652 5652 5653 5654 5656 5657 5658 5659 5660 5662 5664 5667 5671 5675 5680 5685 5690 5694 5700 5705 5708 5713 5718 5723 5727 5732 5736 5741 5745 5750 5753 5756 5759 5761
5664 5659 5655 5652 5649 5646 5643 5641 5640 5638 5637 5638 5639 5640 5641 5641 5643 5643 5644 5646 5649 5652 5656 5661 5666 5671 5676 5682 5687 5692 5697 5702 5707 5713 5718 5723 5729 5733 5738 5743 5746 5749 5752
5656 5651 5647 5643 5639 5635 5632 5630 5628 5626 5625 5624 5624 5625 5625 5626 5626 5627 5628 5629 5631 5634 5637 5642 5647 5652 5657 5663 5669 5675 5680 5686 5692 5697 5704 5710 5716 5722 5727 5731 5735 5739 5742
5648 5643 5638 5634 5629 5625 5622 5619 5616 5614 5612 5610 5610 5609 5609 5609 5609 5610 5611 5612 5614 5616 5620 5624 5629 5634 5639 5645 5651 5657 5663 5669 5675 5682 5689 5696 5703 5709 5715 5719 5724 5728 5732
5639 5634 5629 5624 5619 5615 5611 5607 5604 5602 5599 5597 5595 5594 5593 5593 5592 5592 5594 5595 5597 5599 5603 5607 5611 5617 5623 5629 5635 5641 5647 5653 5660 5667 5674 5680 5688 5694 5701 5707 5713 5717 5722
5630 5625 5620 5614 5609 5604 5599 5595 5592 5589 5586 5584 5581 5579 5578 5577 5577 5577 5577 5579 5581 5584 5587 5591 5596 5601 5607 5613 5620 5626 5632 5638 5645 5652 5659 5666 5673 5681 5688 5695 5700 5706 5711
5621 5616 5611 5605 5600 5594 5589 5584 5580 5577 5573 5570 5568 5564 5562 5561 5561 5561 5561 5562 5564 5568 5572 5575 5580 5586 5591 5598 5604 5610 5617 5624 5631 5639 5646 5653 5660 5668 5675 5681 5688 5693 5699
5612 5606 5600 5595 5589 5584 5578 5573 5569 5565 5561 5557 5554 5550 5547 5545 5545 5545 5545 5546 5548 5551 5555 5559 5565 5571 5577 5583 5589 5596 5603 5611 5618 5625 5632 5639 5647 5655 5662 5669 5676 5681 5688
5603 5597 5591 5585 5579 5573 5568 5562 5558 5553 5549 5545 5541 5536 5533 5531 5530 5529 5529 5530 5532 5535 5539 5544 5549 5556 5562 5568 5575 5582 5590 5597 5605 5612 5620 5626 5634 5643 5650 5657 5664 5671 5677
5593 5587 5581 5575 5569 5563 5557 5551 5546 5541 5536 5532 5527 5523 5520 5517 5516 5515 5515 5515 5518 5521 5524 5529 5535 5542 5548 5554 5562 5569 5577 5584 5592 5600 5607 5614 5622 5630 5638 5646 5653 5659 5666
5583 5578 5572 5566 5559 5553 5547 5541 5535 5529 5524 5520 5515 5511 5508 5505 5504 5503 5503 5503 5505 5508 5511 5516 5521 5528 5535 5541 5549 5557 5564 5572 5580 5588 5595 5603 5611 5619 5627 5635 5642 5648 5655
5574 5568 5562 5556 5549 5543 5537 5531 5525 5519 5514 5509 5504 5500 5497 5495 5493 5492 5492 5493 5494 5496 5499 5503 5508 5515 5522 5529 5537 5545 5553 5561 5569 5576 5584 5591 5599 5608 5616 5624 5631 5638 5644
5565 5559 5553 5547 5540 5534 5527 5521 5515 5510 5505 5500 5495 5491 5488 5486 5484 5483 5482 5483 5484 5486 5489 5492 5497 5504 5510 5519 5527 5534 5542 5550 5558 5566 5573 5581 5589 5597 5606 5613 5621 5628 5634
5556 5550 5544 5537 5531 5524 5518 5512 5506 5501 5496 5491 5487 5483 5480 5477 5475 5475 5474 5474 5475 5477 5479 5483 5487 5494 5501 5509 5517 5525 5533 5541 5548 5556 5563 5571 5579 5588 5596 5603 5610 5617 5624
5547 5541 5535 5528 5522 5515 5509 5503 5497 5493 5488 5483 5479 5475 5472 5469 5467 5467 5466 5466 5467 5469 5471 5475 5480 5486 5493 5501 5508 5516 5524 5531 5539 5547 5554 5562 5571 5579 5586 5594 5601 5608 5614
5539 5532 5526 5519 5513 5507 5500 5495 5489 5484 5480 5476 5472 5468 5464 5462 5461 5460 5460 5460 5461 5462 5465 5469 5474 5479 5486 5494 5501 5508 5516 5523 5530 5538 5546 5554 5562 5570 5577 5584 5592 5599 5605
5529 5523 5516 5510 5504 5498 5492 5486 5481 5477 5472 5468 5464 5460 5457 5455 5454 5454 5454 5455 5455 5457 5459 5463 5467 5474 5480 5487 5494 5501 5508 5516 5523 5530 5538 5546 5553 5561 5568 5575 5582 5589 5596
5520 5514 5508 5502 5496 5490 5484 5478 5473 5468 5464 5460 5456 5453 5450 5449 5449 5449 5449 5449 5450 5452 5454 5458 5463 5468 5475 5481 5488 5495 5501 5508 5516 5523 5531 5538 5546 5553 5560 5568 5574 5581 5588
5510 5504 5499 5493 5487 5481 5476 5470 5466 5461 5457 5453 5450 5447 5445 5443 5443 5443 5444 5444 5445 5447 5450 5454 5458 5464 5470 5476 5482 5488 5494 5501 5509 5516 5523 5530 5538 5546 5553 5559 5566 5573 5579
5501 5495 5490 5484 5478 5473 5467 5463 5458 5454 5450 5447 5445 5443 5441 5439 5438 5438 5438 5439 5441 5443 5446 5450 5454 5460 5465 5471 5476 5482 5488 5495 5502 5510 5517 5524 5532 5538 5545 5552 5558 5565 5572
5492 5486 5481 5475 5469 5464 5460 5455 5451 5447 5444 5441 5439 5437 5435 5434 5434 5433 5434 5435 5437 5439 5442 5445 5450 5455 5460 5466 5472 5478 5484 5491 5497 5504 5511 5518 5524 5531 5538 5544 5551 5558 5564
5483 5477 5472 5467 5461 5456 5452 5447 5443 5440 5437 5435 5433 5431 5430 5429 5428 5428 5429 5430 5432 5435 5438 5441 5445 5450 5455 5461 5467 5473 5479 5485 5492 5498 5505 5512 5518 5525 5531 5537 5544 5550 5556
5474 5468 5463 5459 5454 5448 5443 5439 5436 5433 5430 5428 5426 5425 5423 5423 5422 5423 5424 5425 5427 5430 5433 5437 5441 5446 5451 5457 5463 5468 5474 5480 5485 5492 5499 5506 5512 5518 5524 5530 5536 5542 5548
5465 5460 5455 5450 5446 5440 5435 5431 5427 5425 5422 5421 5419 5418 5416 5416 5416 5417 5419 5421 5423 5425 5429 5432 5437 5442 5447 5452 5458 5463 5469 5474 5480 5486 5493 5500 5506 5512 5518 5524 5530 5535 5541
5456 5451 5446 5441 5437 5432 5427 5423 5420 5417 5415 5413 5412 5411 5410 5409 5410 5412 5413 5416 5418 5421 5424 5429 5433 5438 5443 5448 5453 5459 5465 5470 5476 5482 5488 5495 5501 5507 5512 5518 5524 5529 5534
5446 5442 5437 5432 5428 5423 5419 5416 5412 5409 5407 5406 5404 5404 5403 5403 5404 5406 5409 5411 5414 5417 5420 5424 5429 5435 5439 5444 5449 5454 5460 5466 5471 5478 5484 5490 5496 5502 5508 5513 5518 5523 5529